User: anonymous   Login
Location: Sunrise Point
(46.9200°N, 121.5900°W)
Time: 09:43:52
(UTC-07:00)
Language:

Cosmos 2058 - Orbit

View from above orbital plane
View from above orbital plane
View from above satellite
View from above satellite

Ground track
Ground track

The orbit data is extracted from the following two-line orbital elements,

1 20465U 90010A   17142.89415587 +.00000386 +00000-0 +30738-4 0  9991
2 20465 082.4896 272.1684 0016138 025.5500 334.6517 14.97501386460443
Epoch (UTC): 22 May 2017 21:27:35
Eccentricity: 0.0016138
inclination: 82.4896°
perigee height: 563 km
apogee height: 586 km
right ascension of ascending node: 272.1684°
argument of perigee: 25.5500°
revolutions per day: 14.97501386
mean anomaly at epoch: 334.6517°
orbit number at epoch: 46044

The dashed part of the orbit path shows where the satellite is in the earth's shadow,  

DLR